User: anonymous   Login
Location: Unspecified
(0.0000°N, 0.0000°E)
Time: 15:28:58
(UTC+00:00)
Language:

CZ-3 Stage 3 - Orbit

View from above orbital plane
View from above orbital plane
View from above satellite
View from above satellite

Ground track
Ground track

The orbit data is extracted from the following two-line orbital elements,

1 14900U 84035B   19169.78224401 -.00000047  00000-0  24912-3 0  9991
2 14900  30.5345 158.7107 7130738  23.2272 357.1516  2.33872871231872
Epoch (UTC): 18 June 2019 18:46:25
Eccentricity: 0.7130738
inclination: 30.5345°
perigee height: 501 km
apogee height: 34691 km
right ascension of ascending node: 158.7107°
argument of perigee: 23.2272°
revolutions per day: 2.33872871
mean anomaly at epoch: 357.1516°
orbit number at epoch: 23187

The dashed part of the orbit path shows where the satellite is in the earth's shadow,  

DLR